#timestamp,LO_Frequency,Hit 
1500742815.7,286047709.5,N
1500742835.5,286047665.9,N
1500742855.3,286047688.9,N
1500742875.2,286047690.2,N
1500742895.9,286047689.5,N
1500742915.7,286047691.3,N
1500742935.6,286047691.7,N
1500742955.4,286047671.7,N
1500742975.2,286047779.3,N
1500742995.1,286047884.3,N
1500742996.0,286047884.3,N
1500743015.8,286047455.1,N
1500743035.6,286047667.1,N
1500743055.5,286048959.2,Y
1500743075.3,286046916.7,N
1500743095.1,286048585.4,N
1500743115.9,286046617.8,N
1500743135.7,286045963.1,N
1500743155.5,286045921.0,N
1500743175.3,286045911.0,N
1500743195.2,286045964.3,N
1500743215.9,286045942.9,N
1500743235.7,286046000.6,N
1500743255.6,286046001.4,N
1500743275.4,286045947.9,N
1500743295.2,286045946.1,N
1500743315.1,286046035.4,N
1500743316.0,286046035.4,N
1500743335.8,286045863.8,N
1500743355.6,286046038.0,N
1500743375.5,286046035.4,N
1500743395.3,286046036.0,N
1500743415.1,286046035.2,N
1500743435.8,286046037.9,N
1500743455.7,286046036.5,N
1500743475.5,286046039.5,N
1500743495.3,286046036.5,N
1500743515.2,286046256.5,N
1500743535.2,286046255.7,N
1500743555.1,286046257.9,N
1500743556.0,286046257.9,N
1500743575.8,286046257.7,Y
1500743595.6,286047202.6,N
1500743615.5,286047196.5,N
1500743635.3,286047197.9,N
1500743655.1,286047197.3,N
1500743675.9,286047197.1,N
1500743695.7,286047472.3,N
1500743715.2,286047197.4,N
1500743735.1,286047199.4,N
1500743736.0,286047199.4,N
1500743755.8,286047197.8,N
1500743775.6,286047197.9,N
1500743795.5,286047195.5,N
1500743815.3,286047195.1,N
1500743835.1,286047197.6,N
1500743855.9,286047035.7,N
1500743875.7,286047199.5,N
1500743895.5,286047199.4,N
1500743915.4,286047198.8,N
1500743935.2,286047570.4,N
1500743955.0,286047103.1,N
1500743955.9,286047103.1,N
1500743975.7,286047185.8,N
1500743995.6,286047070.8,N
1500744015.4,286047159.7,N
1500744035.2,286046982.9,N
1500744055.1,286047146.8,N
1500744056.0,286047146.8,N
1500744075.8,286046998.0,N
1500744095.6,286047168.7,N
1500744115.5,286046238.1,Y
1500744135.3,286046058.3,Y
1500744155.2,286045913.1,Y
1500744175.9,286045805.4,Y
1500744195.7,286045739.1,Y
1500744215.6,286046674.5,N
1500744235.4,286046674.5,N
1500744255.2,286046674.4,N
1500744275.1,286046671.9,N
1500744295.2,286046674.2,N
1500744315.0,286046674.0,N
1500744315.9,286046674.0,N
1500744335.8,286046672.1,N
1500744355.6,286046676.1,N
1500744375.4,286046673.9,N
1500744395.3,286046675.5,N
1500744415.1,286046675.7,N
1500744416.0,286046675.7,N
1500744435.8,286046675.9,N
1500744455.6,286046676.1,N
1500744475.5,286046675.2,N
1500744495.3,286046675.4,N
1500744515.1,286046675.2,N
1500744535.9,286045204.5,Y
1500744555.7,286046889.6,N
1500744575.5,286046833.3,N
1500744595.4,286047005.4,N
1500744615.2,286046766.0,N
1500744635.0,286047120.9,N
1500744635.9,286047120.9,N
1500744655.8,286046826.2,N
1500744675.6,286046764.3,N
1500744695.4,286047607.4,N
1500744715.3,286047544.6,N
1500744735.1,286047606.7,N
1500744736.0,286047606.7,N
1500744755.8,286047604.9,N
1500744775.7,286047605.4,N
1500744795.5,286047604.9,N
1500744815.3,286047005.0,N
1500744835.1,286047006.1,N
1500744855.9,286047006.2,N
1500744875.7,286047006.3,N
1500744895.5,286046962.9,N
1500744915.4,286047006.7,N
1500744935.2,286047004.9,N
1500744955.0,286047005.0,N
1500744955.9,286047005.0,N
1500744975.8,286047003.5,N
1500744995.6,286047003.1,N
1500745015.4,286047126.5,N
1500745035.3,286047007.4,N
1500745055.1,286047006.5,N
1500745056.0,286047006.5,N
1500745075.8,286047004.5,N
1500745095.6,286047007.3,N
1500745115.5,286047004.9,N
1500745135.3,286047007.6,N
1500745155.1,286047004.8,N
1500745175.9,286047006.7,N
1500745195.7,286047006.8,N
1500745215.5,286047007.4,N
1500745235.4,286047008.3,N
1500745255.2,286047012.6,N
1500745275.0,286047013.2,N
1500745275.9,286047013.2,N
1500745295.8,286047012.9,N
1500745315.6,286047013.4,N
1500745335.4,286047015.1,N
1500745355.2,286047013.0,N
1500745375.1,286047014.0,N
1500745376.0,286047014.0,N
1500745395.8,286047012.6,N
1500745415.6,286047016.8,N
1500745435.5,286047012.9,N
1500745455.3,286047012.7,N
1500745475.1,286047015.2,N
1500745495.9,286047013.1,N
1500745515.7,286047013.4,N
1500745535.4,28601500745695.7,286047002.3,Y
1500745715.5,286047002.0,N
1500745735.3,286047005.6,Y
1500745755.2,286047001.3,N
1500745775.9,286047003.9,N
1500745795.7,286047003.3,N
1500745815.6,286047003.4,N
1500745835.4,286047003.9,N
1500745855.2,286047002.8,N
1500745875.1,286046996.7,N
1500745876.0,286046996.7,N
1500745895.8,286046996.9,N
1500745915.6,286046997.1,N
1500745935.5,286046997.7,N
1500745955.3,286046996.6,N
1500745975.1,286046999.3,N
1500745995.8,286046995.4,N
1500746015.7,286046996.2,N
1500746035.5,286046997.8,N
1500746055.3,286046996.9,Y
1500746075.2,286047002.6,N
1500746095.0,286047003.9,N
1500746095.9,286047003.9,N
1500746115.7,286047002.0,N
1500746135.6,286047002.6,N
1500746155.4,286047004.2,N
1500746175.2,286047005.7,N
1500746195.1,286047007.0,N
1500746196.0,286047007.0,N
1500746215.8,286047005.7,N
1500746235.6,286047004.0,N
1500746255.5,286047005.5,Y
1500746275.3,286047000.7,N
1500746295.1,286047000.5,N
1500746315.9,286047002.8,N
1500746335.7,286047000.6,N
1500746355.5,286047001.4,N
1500746375.4,286047002.1,N
1500746395.2,286047002.2,N
